Skip Page Navigation
NASA JPL Caltech
NASA Logo - Jet Propulsion Laboratory + View the NASA Portal
+ Center for Near-Earth Object Studies
JPL Home Earth Solar System Stars & Galaxies Technology
JPL Solar System Dynamics
BODIES ORBITS EPHEMERIDES TOOLS PHYSICAL DATA DISCOVERY FAQ SITE MAP
IMPORTANT: The SSD Announcement email list is now available. Major changes are coming in the near future, including possible hostname and/or URL changes. To be notified of such changes, subscribe to this email list.

Please visit this page for more details.


JPL Small-Body Database Browser
Search: [ help ]  
212604 (2006 SR279)
Classification: Main-belt Asteroid          SPK-ID: 2212604
Ephemeris | Orbit Diagram | Orbital Elements | Mission Design | Physical Parameters | Discovery Circumstances | Close-Approach Data ]

[ show orbit diagram ]
Orbital Elements at Epoch 2458600.5 (2019-Apr-27.0) TDB
Reference: JPL 7 (heliocentric ecliptic J2000)
 Element Value Uncertainty (1-sigma)   Units 
e .2748888572499111 6.147e-08  
a 2.622470325980435 2.1243e-08 au
q 1.901582454899871 1.7031e-07 au
i 3.309834375554531 7.5445e-06 deg
node 285.5759612578677 9.6633e-05 deg
peri 37.6798258888047 9.7699e-05 deg
M 19.6140630546549 1.7807e-05 deg
tp 2458515.985861793323
(2019-Feb-01.48586179)
7.5952e-05 TDB
period 1551.187516305204
4.25
1.8848e-05
5.16e-08
d
yr
n .2320802586507976 2.8199e-09 deg/d
Q 3.343358197060998 2.7082e-08 au
  Orbit Determination Parameters
   # obs. used (total)      213  
   data-arc span      9074 days (24.84 yr)  
   first obs. used      1993-08-13  
   last obs. used      2018-06-17  
   planetary ephem.      DE431  
   SB-pert. ephem.      SB431-N16  
   condition code      0  
   norm. resid. RMS      .64691  
   source      ORB  
   producer      Otto Matic  
   solution date      2019-Jul-14 08:00:16  

Additional Information
 Earth MOID = .88965 au 
 Jupiter MOID = 2.0037 au 
 T_jup = 3.347 
[ show covariance matrix ]

Ephemeris | Orbit Diagram | Orbital Elements | Mission Design | Physical Parameters | Discovery Circumstances | Close-Approach Data ]

Physical Parameter Table
Parameter Symbol Value Units Sigma Reference Notes
absolute magnitude H 16.5   n/a MPO450008  

212604 (2006 SR279)          Discovered 2006-Sep-28 by Spacewatch at Kitt Peak
Reference: 20090409/Numbers.arcLast Updated: 2009-04-10

[ show close-approach data ]
Ephemeris | Orbit Diagram | Orbital Elements | Mission Design | Physical Parameters | Discovery Circumstances | Close-Approach Data ]
ABOUT SSD CREDITS/AWARDS PRIVACY/COPYRIGHT GLOSSARY LINKS
FirstGov
(server date/time)  
NASA Home Page
Site Manager:   Ryan S. Park
Webmaster  Alan B. Chamberlin